Theta_e
289 289 289 288 289 289 289 289 289 289 288 287 287 286 286 286 286 286 286 285 284 284 285 284 283 283 282 282 282 282 281 280 277 279 281 282 282 281 282 282 282 281 280
289 288 288 287 288 287 287 287 287 287 287 286 285 284 284 284 284 284 284 284 284 283 283 283 282 283 282 282 282 281 281 281 279 276 279 280 280 281 280 280 280 280 279
288 288 287 287 287 287 286 286 286 285 285 284 284 283 283 283 283 283 283 284 283 283 283 282 282 282 281 281 281 280 280 280 280 278 277 280 279 280 279 279 279 278 279
288 288 287 287 287 286 286 285 285 284 284 283 283 283 282 282 282 282 283 283 283 283 283 282 282 281 280 279 279 279 279 279 278 277 277 278 278 278 277 276 275 276 276
287 287 287 286 286 286 285 284 284 283 283 282 282 282 282 282 281 281 282 282 282 281 282 281 281 281 280 280 279 278 278 277 277 276 276 276 275 274 273 275 274 274 275
287 286 286 285 284 284 284 283 283 282 282 281 281 281 280 281 281 281 281 280 280 280 280 280 280 280 279 279 280 280 279 277 277 276 275 274 274 274 274 274 273 271 269
286 286 285 284 283 283 283 283 282 281 281 280 280 280 280 281 281 280 280 279 279 280 279 279 278 278 279 278 279 279 279 281 281 278 275 274 273 274 275 272 272 270 269
285 285 284 283 282 282 282 282 282 282 281 280 280 280 280 280 280 279 279 279 279 279 279 279 278 278 278 278 277 277 278 278 278 277 276 275 275 276 275 273 271 271 271
284 284 283 282 281 281 281 281 281 281 281 280 280 280 279 279 280 279 278 278 278 278 279 278 278 277 278 279 277 276 276 276 278 278 278 279 278 277 275 272 268 267 265
283 283 283 282 282 281 281 281 281 281 280 280 279 279 279 277 279 278 278 277 276 277 278 278 279 278 279 279 277 276 274 273 273 273 274 273 273 272 273 271 269 265 265
283 282 282 281 281 281 281 281 280 279 279 278 277 277 277 277 276 278 278 277 276 276 276 276 277 278 278 279 279 275 273 274 272 270 269 269 269 269 270 270 269 267 264
282 281 280 279 280 281 279 279 278 278 277 276 276 276 277 276 277 277 277 278 278 276 275 276 276 278 278 278 276 275 275 273 268 267 266 266 267 267 267 267 267 267 267
280 278 278 278 279 279 279 278 278 277 276 277 277 276 276 277 276 277 277 277 276 276 276 277 278 277 276 274 273 272 270 267 266 264 264 264 266 266 266 265 266 266 265
279 278 278 277 278 278 279 279 279 278 277 277 276 276 276 276 275 275 275 275 276 276 276 275 273 274 274 272 268 269 267 266 265 263 264 265 265 264 263 264 262 262 261
278 278 279 280 278 279 278 278 277 278 279 278 278 277 276 274 276 276 275 275 275 276 271 271 271 269 267 266 266 265 265 265 263 263 262 261 261 261 261 262 261 259 258
279 280 280 280 280 279 278 278 280 280 279 279 279 278 276 277 277 278 277 277 277 276 269 268 267 266 265 264 263 263 263 262 262 261 260 260 259 259 259 259 259 258 257
279 281 281 277 280 279 278 276 276 278 279 279 279 279 279 279 278 277 276 275 275 272 266 266 265 264 263 263 262 262 261 261 260 259 259 258 258 257 256 257 257 257 256
277 276 280 280 280 279 278 277 276 275 275 274 276 276 276 275 274 274 273 273 268 268 265 263 262 262 262 261 261 260 259 259 258 258 257 256 256 255 255 255 256 255 255
278 279 278 278 278 277 277 276 275 274 273 273 271 269 270 270 270 270 270 265 263 262 262 261 261 261 260 260 259 258 257 256 256 255 255 255 255 256 255 255 255 254 254
276 274 274 278 277 274 274 273 273 272 272 271 271 270 267 263 264 265 265 263 261 261 261 260 260 260 259 258 257 256 256 255 255 255 255 255 255 255 255 254 254 254 254
279 278 272 274 274 274 273 272 272 271 270 270 270 270 268 264 264 265 263 262 261 260 259 259 259 258 257 256 255 255 255 255 255 254 254 254 255 254 254 253 254 254 254
277 277 275 273 273 272 271 271 271 270 269 269 269 267 269 265 264 263 261 261 260 259 258 257 257 256 256 255 254 253 253 253 253 253 254 254 254 253 253 253 254 254 254
276 275 274 272 271 269 268 270 269 269 269 268 267 265 262 262 262 261 260 259 258 257 256 255 255 254 254 253 254 254 253 252 253 254 253 252 252 252 252 252 253 253 253
274 273 273 271 269 269 269 269 268 266 267 266 265 264 263 261 260 259 257 257 256 256 254 253 252 252 252 252 253 253 253 253 253 253 251 251 250 250 251 251 253 254 254
273 272 271 270 269 267 268 268 267 266 265 265 264 263 262 260 258 258 258 256 253 252 252 251 251 251 251 250 251 251 252 254 253 253 252 251 251 251 251 252 252 253 253
271 270 270 269 268 268 268 267 266 266 264 263 263 262 260 259 258 257 256 254 252 251 251 251 252 251 251 252 252 253 256 258 257 256 255 253 252 253 253 254 254 255 257
Wind_Speed
7 8 8 7 6 5 4 4 4 4 3 3 2 2 2 2 3 3 3 3 4 5 5 6 7 6 5 5 5 6 7 7 10 9 9 10 12 12 10 9 10 9 9
7 7 7 6 5 5 4 4 3 3 3 2 1 0 1 2 2 3 4 5 6 6 7 7 8 6 7 7 5 8 8 9 8 13 11 10 11 12 10 12 9 8 11
7 7 6 6 5 4 4 4 3 3 3 3 2 2 3 2 3 4 5 6 6 7 7 8 8 8 9 7 7 8 8 8 8 10 11 9 10 9 11 10 9 10 9
7 7 6 5 5 4 4 3 3 3 3 3 3 3 3 4 4 4 6 6 7 7 7 8 8 8 8 10 9 9 9 8 9 10 10 10 10 10 9 10 10 8 11
7 6 6 5 5 4 4 3 3 4 4 4 4 5 4 4 4 4 6 7 7 8 8 8 7 6 8 11 7 9 10 9 9 10 10 10 10 10 11 10 11 11 11
7 7 6 5 5 4 4 4 5 5 5 6 6 5 5 4 5 7 7 8 9 9 8 8 8 7 8 12 15 16 15 12 12 10 10 11 12 11 12 10 11 12 15
7 6 6 6 6 5 5 5 6 6 5 6 6 5 6 6 6 8 9 8 9 8 8 8 8 6 7 9 12 17 17 19 14 12 12 11 13 14 13 14 14 13 13
7 6 6 6 6 5 5 6 5 5 6 6 6 6 6 5 7 9 10 9 8 8 8 8 8 9 9 9 11 12 12 10 10 8 10 12 13 12 13 13 15 16 12
7 8 7 7 6 6 6 6 6 5 4 5 4 6 6 7 9 9 9 8 8 9 7 8 8 9 13 16 12 13 12 11 12 20 23 26 24 26 21 11 9 10 13
8 8 6 6 6 7 7 5 3 3 6 4 6 6 6 8 10 10 9 6 8 7 8 8 10 8 15 17 12 11 12 11 12 14 11 14 15 13 18 10 9 10 10
6 5 6 6 6 4 3 3 4 5 5 4 5 5 7 8 9 11 10 7 7 6 7 7 6 13 16 18 18 10 12 17 14 10 9 8 9 8 7 7 9 9 10
6 5 4 4 4 4 5 4 3 3 4 5 6 6 6 6 9 10 11 11 11 8 8 7 7 16 17 20 16 20 21 18 7 8 8 8 9 8 7 7 10 11 10
5 5 5 5 4 4 4 4 4 5 5 6 6 5 5 4 4 9 10 11 11 8 7 12 20 15 17 13 17 19 13 6 7 8 8 9 8 8 10 9 10 11 12
5 4 4 4 4 4 4 5 6 6 6 6 6 5 4 3 3 3 3 4 8 8 11 6 6 11 15 13 7 7 5 6 7 7 9 8 8 8 8 8 9 9 10
3 3 5 5 6 6 7 7 7 7 7 6 5 4 4 4 3 3 5 5 5 8 1 3 4 5 5 5 5 5 5 6 7 7 8 9 9 8 8 8 8 9 10
6 5 6 5 6 6 5 6 15 16 13 14 14 9 4 10 11 10 10 12 13 13 1 5 6 5 6 6 6 6 6 7 6 7 8 8 9 9 9 8 8 8 9
8 5 4 5 5 5 6 6 5 7 13 15 15 14 15 12 11 10 11 11 11 7 4 4 5 5 5 6 6 6 7 6 7 7 8 8 8 8 9 8 8 8 9
6 7 5 5 5 5 5 5 4 4 5 4 9 10 9 8 8 9 8 9 4 3 2 4 4 5 5 6 6 6 6 6 6 7 7 7 7 7 8 8 8 9 9
6 5 5 5 5 4 3 4 4 4 4 3 2 3 2 4 5 6 3 1 2 3 2 3 3 4 5 5 6 6 6 6 7 7 7 7 7 7 8 8 9 12 12
5 6 4 4 3 4 4 4 4 4 4 4 4 4 5 2 2 3 3 2 2 3 3 4 4 4 5 5 5 5 6 7 7 6 7 6 7 7 8 9 9 9 10
3 3 5 4 4 4 4 4 4 4 4 4 4 3 6 3 2 2 2 2 2 3 2 3 4 5 5 5 5 6 6 7 7 6 7 7 7 8 8 8 9 9 10
3 3 4 4 3 3 4 4 4 4 4 4 3 3 7 2 2 2 2 2 2 2 1 2 4 5 4 5 5 6 7 8 7 7 7 8 7 8 8 9 9 10 10
4 4 4 3 3 4 4 4 4 4 4 4 3 3 3 3 2 2 3 2 2 1 1 2 4 5 5 4 5 6 7 8 8 7 8 9 8 8 8 9 10 10 10
4 5 4 4 4 4 5 5 4 4 4 3 4 4 3 3 3 3 2 1 1 2 2 2 3 6 7 6 6 7 8 9 7 8 9 9 10 9 9 10 10 12 12
4 5 5 5 5 5 4 5 5 5 5 5 4 4 3 2 2 2 2 2 2 2 3 3 3 7 9 10 10 12 13 16 13 12 8 11 13 14 12 10 12 12 14
5 6 5 4 4 5 5 5 5 5 5 5 4 3 3 3 2 2 2 2 2 3 4 4 6 9 11 10 12 14 15 17 14 15 12 11 11 11 10 13 16 12 15
Wind_Direction
128 114 111 113 113 111 116 116 112 110 105 99 98 67 42 22 16 349 344 324 320 321 323 324 316 317 307 304 298 297 300 301 295 306 305 321 308 310 306 324 304 317 315
130 122 127 129 136 136 136 124 132 123 117 120 153 109 336 317 335 316 319 325 314 312 318 316 312 311 305 304 297 298 298 296 299 304 310 307 309 308 320 312 313 315 315
138 140 148 147 154 152 145 133 160 155 162 181 218 246 269 298 294 297 305 300 306 310 312 310 309 313 306 306 307 304 301 301 308 303 300 299 307 313 318 314 312 313 308
159 164 161 165 169 171 153 168 170 194 199 217 229 243 262 280 278 281 290 298 307 312 308 305 302 302 310 326 312 308 306 310 306 296 303 302 309 323 314 310 309 310 309
169 176 179 173 179 169 174 180 190 211 220 233 245 243 256 266 274 312 303 306 305 306 302 298 307 322 309 295 298 302 305 306 298 299 300 308 310 318 315 310 308 310 308
183 189 176 180 185 188 193 200 210 217 221 229 240 248 263 265 268 280 291 303 301 292 299 310 311 309 304 311 295 309 302 296 297 306 305 300 305 314 306 312 314 314 315
186 184 183 191 195 198 200 206 219 225 231 241 249 251 251 253 258 275 292 286 287 295 304 304 301 300 296 298 312 306 301 304 287 296 299 304 309 311 309 312 311 303 298
186 187 194 192 198 197 205 219 229 228 233 240 244 248 264 269 264 273 283 285 291 295 294 296 294 298 302 308 303 303 302 301 304 304 299 300 294 297 304 308 308 303 295
190 199 195 192 199 201 215 220 223 227 236 248 256 258 257 264 267 270 291 296 289 291 294 294 295 297 298 307 302 304 306 305 315 315 307 303 305 309 308 308 301 304 303
196 201 190 190 201 207 211 214 210 230 249 244 250 253 266 271 274 269 273 283 290 293 295 294 287 296 304 309 306 305 309 317 313 302 310 308 302 297 300 294 293 295 303
181 175 181 192 198 208 200 206 202 222 240 241 262 265 260 257 264 266 264 273 280 293 298 298 302 309 306 306 309 319 306 309 315 311 302 297 296 293 294 299 306 303 298
170 180 189 188 189 190 196 197 204 229 248 247 250 252 246 239 248 258 261 267 284 288 287 294 303 300 312 307 313 307 309 318 313 298 300 297 298 300 304 308 301 286 277
169 194 183 182 186 189 203 217 225 220 236 246 240 245 245 212 226 260 272 284 287 281 290 290 294 309 307 315 306 311 319 313 305 301 301 297 298 308 305 299 295 294 290
192 190 174 189 210 205 215 223 224 223 223 231 237 244 247 231 233 236 253 271 272 282 283 314 312 300 301 300 308 308 311 307 305 295 295 304 306 306 304 306 306 308 303
195 187 208 209 207 219 216 218 219 227 225 226 232 236 245 244 245 245 263 264 278 281 4 287 286 297 299 297 298 305 302 303 304 300 307 308 305 307 308 313 313 310 298
217 216 218 212 213 213 230 236 234 242 238 242 252 242 223 247 256 271 288 289 296 309 320 297 294 294 296 303 305 305 303 302 306 315 304 295 303 307 309 312 300 302 301
225 223 208 201 221 222 215 227 245 216 237 243 243 244 252 260 267 276 283 292 307 318 273 290 292 299 303 301 301 304 305 307 316 292 295 298 302 305 308 304 303 302 300
217 224 228 228 219 227 224 230 227 235 233 214 233 243 248 258 266 276 287 300 297 251 258 277 290 303 297 296 300 301 299 300 298 295 298 299 298 297 299 297 300 301 300
213 223 210 224 233 233 233 228 230 227 229 238 145 209 223 237 257 272 293 238 278 280 284 280 283 288 290 294 293 293 291 290 290 287 278 285 288 293 291 292 294 294 292
221 232 230 221 221 216 222 225 222 218 221 218 216 213 143 145 199 194 194 213 247 257 259 269 280 282 283 283 285 287 286 286 287 286 286 288 286 283 287 292 291 291 292
219 202 189 216 223 222 222 220 220 214 214 213 213 168 187 193 207 217 205 211 228 241 254 274 283 281 278 280 279 279 279 283 284 284 284 283 281 283 284 281 282 281 282
209 210 193 213 211 201 211 212 211 213 213 206 190 172 223 176 219 226 238 228 220 224 229 257 270 272 278 281 282 283 281 279 280 278 279 282 282 280 280 280 281 280 279
199 206 204 199 202 192 192 209 209 209 208 202 191 166 178 205 203 218 229 225 229 236 243 250 267 272 267 259 256 257 266 268 269 274 280 281 278 276 276 279 281 282 281
193 201 202 194 190 197 205 197 200 209 203 188 180 191 194 186 203 210 223 247 250 262 250 231 235 255 271 271 267 260 256 258 259 261 254 266 271 273 266 267 270 275 277
198 191 196 200 191 199 192 200 191 188 190 195 191 195 184 168 180 217 225 213 225 256 256 246 245 260 267 268 264 262 262 268 263 259 259 257 260 263 261 263 269 274 272
198 196 193 190 190 191 193 191 191 189 193 189 187 182 168 165 184 210 221 225 240 251 270 268 270 269 272 274 270 268 272 274 272 260 241 240 248 257 259 260 264 263 271